Weather History for Destin, FL

Change the Weather History Date:

Sunday, December 9, 2012

  Actual Average Record
Temperature  
Mean Temperature 66 °F -  
Max Temperature 73 °F 62 °F 75 °F (2004)
Min Temperature 60 °F 47 °F 30 °F (2010)
Cooling Degree Days 2    
Growing Degree Days 16 (Base 50)    
Moisture  
Dew Point 63 °F    
Average Humidity 83    
Maximum Humidity 97    
Minimum Humidity 66    
Precipitation  
Precipitation 0.01 in - - ()
Sea Level Pressure  
Sea Level Pressure 30.02 in    
Wind  
Wind Speed 3 mph (SE)    
Max Wind Speed 13 mph    
Max Gust Speed -    
Visibility 6 miles    
Events Fog    
Averages and records for this station are not official NWS values.
T = Trace of Precipitation, MM = Missing Value Source: NWS Daily Summary

Daily Weather History Graph

Daily Weather History Graph

Search for Another Location

Airport:

Trip Planner

Search our weather history database for the weather conditions in past years. The results will help you decide how hot, cold, wet, or windy it might be!

Date:

Astronomy

Dec. 09, 2012 Rise Set
Actual Time 6:31 AM CST 4:45 PM CST
Civil Twilight 6:05 AM CST 5:11 PM CST
Nautical Twilight 5:35 AM CST 5:41 PM CST
Astronomical Twilight 5:05 AM CST 6:11 PM CST
Moon 2:16 AM CST (12/9) 1:41 PM CST (12/9)
Length of Visible Light 11h 06m
Length of Day
10h 14m
Waning Crescent, 18% of the Moon is Illuminated
Dec 9
Waning Crescent
Dec 13
New
Dec 19
First Quarter
Dec 28
Full
Jan 4
Last Quarter

Hourly Weather History & Observations

Time (CST) Temp. Dew Point Humidity Pressure Visibility Wind Dir Wind Speed Gust Speed Precip Events Conditions
12:01 AM 60.8 °F 59.0 °F 94% 30.01 in 1.5 mi Calm Calm - N/A   Partly Cloudy
12:04 AM 62.6 °F 59.0 °F 88% 30.01 in 0.8 mi Calm Calm - N/A   Mist
12:17 AM 62.6 °F 59.0 °F 88% 30.01 in 1.0 mi Calm Calm - N/A   Clear
12:21 AM 62.6 °F 60.8 °F 94% 30.01 in 3.0 mi Calm Calm - N/A   Clear
12:42 AM 64.4 °F 60.8 °F 88% 30.01 in 1.5 mi Calm Calm - N/A   Clear
12:53 AM 63.0 °F 61.0 °F 93% 30.01 in 0.5 mi Calm Calm - N/A Fog Fog
1:38 AM 64.4 °F 62.6 °F 94% 30.01 in 0.5 mi Calm Calm - N/A Fog Fog
1:50 AM 64.4 °F 62.6 °F 94% 30.01 in 0.5 mi Calm Calm - N/A Fog Fog
1:53 AM 64.0 °F 62.1 °F 93% 30.01 in 0.5 mi Calm Calm - N/A Fog Fog
2:53 AM 64.9 °F 63.0 °F 93% 30.01 in 0.2 mi Calm Calm - N/A Fog Fog
3:53 AM 64.9 °F 63.0 °F 93% 30.01 in 0.2 mi Calm Calm - N/A Fog Fog
4:53 AM 64.9 °F 63.0 °F 93% 30.03 in 0.2 mi East 3.5 mph - 0.01 in Fog Fog
5:53 AM 64.9 °F 63.0 °F 93% 30.05 in 0.2 mi East 4.6 mph - N/A Fog Fog
6:53 AM 64.9 °F 64.0 °F 97% 30.06 in 0.2 mi East 6.9 mph - N/A Fog Fog
7:53 AM 66.9 °F 64.9 °F 93% 30.07 in 0.5 mi East 5.8 mph - N/A Fog Fog
8:01 AM 66.2 °F 64.4 °F 94% 30.07 in 2.0 mi East 8.1 mph - N/A   Overcast
8:10 AM 66.2 °F 64.4 °F 94% 30.07 in 5.0 mi East 5.8 mph - N/A   Overcast
8:53 AM 68.0 °F 66.0 °F 93% 30.09 in 10.0 mi East 6.9 mph - N/A   Mostly Cloudy
9:17 AM 69.8 °F 66.2 °F 88% 30.09 in 10.0 mi ENE 5.8 mph - N/A   Mostly Cloudy
9:53 AM 73.0 °F 64.9 °F 76% 30.09 in 10.0 mi SE 6.9 mph - N/A   Mostly Cloudy
10:01 AM 73.4 °F 66.2 °F 78% 30.09 in 10.0 mi East 4.6 mph - N/A   Scattered Clouds
10:53 AM 73.9 °F 64.9 °F 73% 30.07 in 10.0 mi ESE 8.1 mph - N/A   Partly Cloudy
11:53 AM 73.9 °F 64.9 °F 73% 30.05 in 10.0 mi ESE 12.7 mph - N/A   Clear
12:53 PM 73.9 °F 64.9 °F 73% 30.03 in 10.0 mi ESE 9.2 mph - N/A   Clear
1:53 PM 73.0 °F 63.0 °F 71% 30.02 in 10.0 mi Variable 3.5 mph - N/A   Mostly Cloudy
2:53 PM 73.9 °F 62.1 °F 66% 30.01 in 10.0 mi South 3.5 mph - N/A   Mostly Cloudy
3:53 PM 73.0 °F 62.1 °F 68% 30.00 in 10.0 mi SSE 5.8 mph - N/A   Clear
4:51 PM 71.6 °F 62.6 °F 73% 30.01 in 10.0 mi South 4.6 mph - N/A   Mostly Cloudy
4:53 PM 72.0 °F 63.0 °F 73% 30.01 in 10.0 mi SSE 4.6 mph - N/A   Mostly Cloudy
5:11 PM 71.6 °F 62.6 °F 73% 30.01 in 10.0 mi South 3.5 mph - N/A   Scattered Clouds
5:23 PM 71.6 °F 62.6 °F 73% 30.01 in 10.0 mi South 4.6 mph - N/A   Mostly Cloudy
5:51 PM 71.6 °F 64.4 °F 78% 30.01 in 10.0 mi South 4.6 mph - N/A   Mostly Cloudy
5:53 PM 72.0 °F 64.0 °F 76% 30.01 in 10.0 mi SSE 5.8 mph - N/A   Mostly Cloudy
6:53 PM 71.1 °F 64.0 °F 78% 30.00 in 10.0 mi SSE 6.9 mph - N/A   Clear
7:53 PM 72.0 °F 64.9 °F 78% 30.00 in 10.0 mi South 6.9 mph - N/A   Clear
8:53 PM 72.0 °F 64.9 °F 78% 30.00 in 10.0 mi South 6.9 mph - N/A   Overcast
9:53 PM 72.0 °F 64.9 °F 78% 29.99 in 10.0 mi South 6.9 mph - N/A   Mostly Cloudy
10:19 PM 71.6 °F 64.4 °F 78% 29.99 in 10.0 mi South 8.1 mph - N/A   Mostly Cloudy
10:46 PM 71.6 °F 64.4 °F 78% 29.98 in 10.0 mi South 5.8 mph - N/A   Scattered Clouds
10:53 PM 72.0 °F 64.9 °F 78% 29.98 in 10.0 mi SSE 6.9 mph - N/A   Partly Cloudy
11:53 PM 72.0 °F 63.0 °F 73% 29.96 in 10.0 mi South 6.9 mph - N/A   Clear